Location: Champs
(48.8539°N, 2.6040°E)
Time: 06:43:13
(UTC+00:00)

Cosmos 1953 - Pass Details

Date: 06 June 2022
Orbit: 533 x 555 km, 82.5° (Epoch: 03 July)

Event Time Altitude Azimuth Distance (km) Brightness Sun altitude
Rises 00:14:03 0° 334° (NNW) 2,712 6.8 -18.3°
Reaches altitude 10° 00:16:58 10° 311° (NW) 1,808 5.4 -18.2°
Maximum altitude 00:19:15 15° 275° (W) 1,507 4.5 -18.2°
Enters shadow 00:20:23 14° 256° (WSW) 1,582 4.4 -18.2°
